This demonstration page uses our WeatherBlox Daily Observations layout. Learn more.

Left ArrowRight Arrow

Hourly Observations for June 13, 2021

Temp ( °F °C ) Dew Point ( °F °C ) Humidity (%) Winds ( mph kmh ) Pressure ( in mb ) Visibility ( mi km ) Precip ( " mm )
12:59 am 00:59 Mostly Cloudy 69 20.6 63 17.2 81 81 ENE 12 19 29.91 1013 9 14 0.00 0.00
1:59 am 01:59 Mostly Cloudy 69 20.6 63 17.2 81 81 ESE 7 11 29.88 1012 10 16 0.00 0.00
2:59 am 02:59 Mostly Cloudy 69 20.6 63 17.2 81 81 ENE 9 15 29.88 1012 10 16 0.00 0.00
3:59 am 03:59 Mostly Cloudy 68 20 63 17.2 84 84 ENE 9 15 29.89 1012 9 14 0.00 0.00
4:59 am 04:59 Mostly Cloudy 68 20 63 17.2 84 84 E 8 13 29.89 1012 9 14 0.00 0.00
5:59 am 05:59 Partly Cloudy 68 20 63 17.2 84 84 ENE 9 15 29.89 1012 8 13 0.00 0.00
6:59 am 06:59 Partly Cloudy 69 20.6 63 17.2 81 81 ENE 9 15 29.91 1013 8 13 0.00 0.00
7:59 am 07:59 Partly Cloudy 71 21.7 64 17.8 79 79 ENE 10 17 29.92 1013 8 13 0.00 0.00
8:59 am 08:59 Partly Cloudy 72 22.2 64 17.8 76 76 ENE 12 19 29.93 1014 9 14 0.00 0.00
9:59 am 09:59 Mostly Cloudy 73 22.8 63 17.2 71 71 ENE 7 11 29.94 1014 9 14 0.00 0.00
10:59 am 10:59 Partly Cloudy 74 23.3 64 17.8 71 71 ENE 8 13 29.94 1014 9 14 0.00 0.00
11:59 am 11:59 Sunny 75 23.9 64 17.8 69 69 E 8 13 29.95 1014 10 16 0.00 0.00
12:59 pm 12:59 Partly Cloudy 75 23.9 64 17.8 69 69 E 10 17 29.95 1014 10 16 0.00 0.00
1:59 pm 13:59 Partly Cloudy 76 24.4 62 16.7 62 62 E 12 19 29.93 1014 10 16 0.00 0.00
2:59 pm 14:59 Mostly Cloudy 76 24.4 59 15 56 56 E 12 19 29.94 1014 10 16 0.00 0.00
3:59 pm 15:59 Mostly Cloudy 76 24.4 60 15.6 58 58 E 10 17 29.93 1014 10 16 0.00 0.00
4:59 pm 16:59 Mostly Cloudy 75 23.9 59 15 58 58 E 10 17 29.91 1013 10 16 0.00 0.00
5:59 pm 17:59 Mostly Cloudy 75 23.9 60 15.6 60 60 E 9 15 29.89 1012 10 16 0.00 0.00
6:59 pm 18:59 Mostly Cloudy 73 22.8 57 13.9 57 57 ESE 9 15 29.88 1012 10 16 0.00 0.00
7:59 pm 19:59 Mostly Cloudy 72 22.2 57 13.9 59 59 ESE 6 9 29.89 1012 10 16 0.00 0.00
8:59 pm 20:59 Mostly Cloudy 69 20.6 57 13.9 66 66 Calm 29.91 1013 10 16 0.00 0.00
9:59 pm 21:59 Mostly Cloudy 69 20.6 61 16.1 76 76 NE 6 9 29.95 1014 10 16 0.00 0.00
10:59 pm 22:59 Mostly Clear 68 20 61 16.1 78 78 SE 6 9 29.92 1013 10 16 0.00 0.00
11:59 pm 23:59 Partly Cloudy 68 20 60 15.6 76 76 Calm 29.91 1013 10 16 0.00 0.00

Powered by AerisWeather